MAU219 FMEE-FIMP

Flight info

Callsign MAU219
Flight time 0h 30m
Altitude 17000
Route EPTEK2J EPTEK EPTEK2E
Aircraft A319/M-SDE3FGHIRWY/LB1

Departure

Time 2026-04-25 11:27
Airport Roland Garros Airport (FMEE)

Arrival

Time 2026-04-25 11:57
Airport Sir Seewoosagur Ramgoolam International Airport (FIMP)
Time Latitude Longitude Altitude Speed Heading
2026-04-25 11:19 -20.89111 55.51292 75 ft 0 kts 210°
2026-04-25 11:22 -20.89105 55.51296 72 ft 4 kts 210°
2026-04-25 11:23 -20.89081 55.51310 68 ft 4 kts 209°
2026-04-25 11:23 -20.89062 55.51322 72 ft 4 kts 213°
2026-04-25 11:23 -20.89045 55.51340 75 ft 4 kts 262°
2026-04-25 11:23 -20.89049 55.51365 75 ft 2 kts 296°
2026-04-25 11:24 -20.89060 55.51389 64 ft 2 kts 296°
2026-04-25 11:24 -20.89061 55.51391 64 ft 0 kts 296°
2026-04-25 11:25 -20.89058 55.51385 62 ft 4 kts 296°
2026-04-25 11:26 -20.89034 55.51334 73 ft 13 kts 296°
2026-04-25 11:26 -20.88987 55.51231 67 ft 16 kts 299°
2026-04-25 11:26 -20.88899 55.51172 75 ft 16 kts 345°
2026-04-25 11:26 -20.88765 55.51156 58 ft 20 kts 40°
2026-04-25 11:27 -20.88773 55.51323 59 ft 39 kts 103°
2026-04-25 11:27 -20.88881 55.51858 50 ft 106 kts 102°
2026-04-25 11:27 -20.89071 55.52786 308 ft 131 kts 102°
2026-04-25 11:27 -20.89179 55.53412 844 ft 125 kts 100°
2026-04-25 11:28 -20.88751 55.54650 1689 ft 146 kts 59°
2026-04-25 11:28 -20.88068 55.55525 2149 ft 163 kts 59°
2026-04-25 11:28 -20.87302 55.56529 2509 ft 185 kts 58°
2026-04-25 11:28 -20.86435 55.57664 2822 ft 209 kts 58°
2026-04-25 11:29 -20.85465 55.58929 3177 ft 232 kts 56°
2026-04-25 11:29 -20.84386 55.60332 3645 ft 255 kts 56°
2026-04-25 11:29 -20.83230 55.61824 4444 ft 265 kts 55°
2026-04-25 11:29 -20.82048 55.63345 5380 ft 268 kts 55°
2026-04-25 11:30 -20.80844 55.64900 6279 ft 273 kts 54°
2026-04-25 11:30 -20.79609 55.66495 7167 ft 277 kts 55°
2026-04-25 11:30 -20.78394 55.68067 8055 ft 280 kts 55°
2026-04-25 11:30 -20.77133 55.69704 8914 ft 284 kts 55°
2026-04-25 11:31 -20.75872 55.71344 9823 ft 286 kts 54°
2026-04-25 11:31 -20.74582 55.73022 10299 ft 303 kts 52°
2026-04-25 11:31 -20.73196 55.74826 10673 ft 322 kts 54°
2026-04-25 11:31 -20.71759 55.76688 11319 ft 328 kts 52°
2026-04-25 11:32 -20.70289 55.78587 12036 ft 333 kts 53°
2026-04-25 11:32 -20.68805 55.80506 12776 ft 337 kts 52°
2026-04-25 11:32 -20.67286 55.82476 13491 ft 341 kts 52°
2026-04-25 11:32 -20.65768 55.84440 14159 ft 345 kts 53°
2026-04-25 11:33 -20.64232 55.86433 14762 ft 349 kts 52°
2026-04-25 11:33 -20.62686 55.88439 15396 ft 352 kts 53°
2026-04-25 11:33 -20.61088 55.90446 15991 ft 357 kts 50°
2026-04-25 11:33 -20.59408 55.92410 16599 ft 361 kts 49°
2026-04-25 11:34 -20.57668 55.94368 16869 ft 364 kts 47°
2026-04-25 11:34 -20.55931 55.96292 16936 ft 353 kts 48°
2026-04-25 11:34 -20.54262 55.98141 16945 ft 342 kts 48°
2026-04-25 11:34 -20.52626 55.99969 16944 ft 339 kts 48°
2026-04-25 11:35 -20.51008 56.01791 16945 ft 339 kts 49°
2026-04-25 11:35 -20.49393 56.03620 16942 ft 338 kts 49°
2026-04-25 11:35 -20.47784 56.05448 16942 ft 339 kts 49°
2026-04-25 11:35 -20.46174 56.07277 16942 ft 338 kts 49°
2026-04-25 11:36 -20.44570 56.09114 16938 ft 338 kts 52°
2026-04-25 11:36 -20.43269 56.11173 16949 ft 334 kts 65°
2026-04-25 11:36 -20.42469 56.13483 16947 ft 332 kts 79°
2026-04-25 11:36 -20.42197 56.15926 16953 ft 332 kts 91°
2026-04-25 11:37 -20.42217 56.18387 16960 ft 332 kts 91°
2026-04-25 11:37 -20.42232 56.20844 16957 ft 332 kts 91°
2026-04-25 11:37 -20.42243 56.23308 16951 ft 332 kts 91°
2026-04-25 11:37 -20.42256 56.25762 16954 ft 331 kts 92°
2026-04-25 11:38 -20.42269 56.28222 16949 ft 332 kts 91°
2026-04-25 11:38 -20.42281 56.30679 16950 ft 332 kts 91°
2026-04-25 11:38 -20.42290 56.33171 16948 ft 331 kts 91°
2026-04-25 11:38 -20.42298 56.35628 16946 ft 331 kts 90°
2026-04-25 11:39 -20.42306 56.38083 16945 ft 332 kts 91°
2026-04-25 11:39 -20.42315 56.40544 16947 ft 331 kts 91°
2026-04-25 11:39 -20.42326 56.43002 16948 ft 331 kts 91°
2026-04-25 11:39 -20.42337 56.45455 16941 ft 332 kts 91°
2026-04-25 11:40 -20.42349 56.47911 16944 ft 331 kts 91°
2026-04-25 11:40 -20.42362 56.50401 16945 ft 331 kts 91°
2026-04-25 11:40 -20.42373 56.52859 16940 ft 332 kts 91°
2026-04-25 11:40 -20.42383 56.55316 16939 ft 332 kts 91°
2026-04-25 11:41 -20.42393 56.57773 16944 ft 331 kts 91°
2026-04-25 11:41 -20.42403 56.60233 16936 ft 332 kts 91°
2026-04-25 11:41 -20.42412 56.62690 16925 ft 332 kts 91°
2026-04-25 11:41 -20.42421 56.65143 16515 ft 330 kts 91°
2026-04-25 11:42 -20.42430 56.67585 16125 ft 328 kts 91°
2026-04-25 11:42 -20.42437 56.70009 15747 ft 326 kts 91°
2026-04-25 11:42 -20.42442 56.72421 15372 ft 325 kts 91°
2026-04-25 11:42 -20.42446 56.74822 14990 ft 323 kts 91°
2026-04-25 11:43 -20.42451 56.77211 14626 ft 322 kts 91°
2026-04-25 11:43 -20.42457 56.79593 14255 ft 320 kts 91°
2026-04-25 11:43 -20.42463 56.81963 13885 ft 319 kts 91°
2026-04-25 11:43 -20.42470 56.84353 13480 ft 318 kts 91°
2026-04-25 11:44 -20.42475 56.86704 13098 ft 315 kts 91°
2026-04-25 11:44 -20.42478 56.89029 12727 ft 312 kts 91°
2026-04-25 11:44 -20.42483 56.91335 12351 ft 310 kts 91°
2026-04-25 11:44 -20.42486 56.93624 11974 ft 308 kts 91°
2026-04-25 11:45 -20.42487 56.95921 11600 ft 305 kts 91°
2026-04-25 11:45 -20.42489 56.98150 11227 ft 303 kts 91°
2026-04-25 11:45 -20.42490 57.00393 10855 ft 301 kts 91°
2026-04-25 11:45 -20.42491 57.02608 10516 ft 297 kts 91°
2026-04-25 11:46 -20.42494 57.04801 10174 ft 294 kts 91°
2026-04-25 11:46 -20.42496 57.06968 9845 ft 291 kts 91°
2026-04-25 11:46 -20.42498 57.09095 9587 ft 284 kts 91°
2026-04-25 11:46 -20.42498 57.11171 9313 ft 278 kts 91°
2026-04-25 11:47 -20.42499 57.13232 8886 ft 278 kts 91°
2026-04-25 11:47 -20.42501 57.15280 8543 ft 274 kts 91°
2026-04-25 11:47 -20.42503 57.17309 8218 ft 272 kts 91°
2026-04-25 11:47 -20.42504 57.19311 7900 ft 269 kts 91°
2026-04-25 11:48 -20.42503 57.21300 7586 ft 270 kts 91°
2026-04-25 11:48 -20.42503 57.22642 7376 ft 267 kts 91°
2026-04-25 11:48 -20.42458 57.24618 7071 ft 265 kts 85°
2026-04-25 11:48 -20.41997 57.26528 6807 ft 268 kts 70°
2026-04-25 11:49 -20.41102 57.28272 6510 ft 269 kts 61°
2026-04-25 11:49 -20.40124 57.29960 6200 ft 266 kts 61°
2026-04-25 11:49 -20.39157 57.31641 5882 ft 265 kts 61°
2026-04-25 11:49 -20.38200 57.33313 5571 ft 264 kts 63°
2026-04-25 11:50 -20.37251 57.34971 5321 ft 258 kts 63°
2026-04-25 11:50 -20.36342 57.36556 5231 ft 243 kts 62°
2026-04-25 11:50 -20.35520 57.38066 5140 ft 227 kts 69°
2026-04-25 11:50 -20.34982 57.39595 5045 ft 214 kts 73°
2026-04-25 11:51 -20.34475 57.41077 4949 ft 207 kts 73°
2026-04-25 11:51 -20.33985 57.42502 4868 ft 207 kts 73°
2026-04-25 11:51 -20.33486 57.43954 4765 ft 208 kts 73°
2026-04-25 11:51 -20.32989 57.45409 4669 ft 209 kts 75°
2026-04-25 11:52 -20.32848 57.46925 4569 ft 206 kts 102°
2026-04-25 11:52 -20.33335 57.48308 4456 ft 195 kts 117°
2026-04-25 11:52 -20.33952 57.49572 4234 ft 190 kts 119°
2026-04-25 11:52 -20.34555 57.50811 3974 ft 186 kts 119°
2026-04-25 11:53 -20.35151 57.52041 3708 ft 186 kts 116°
2026-04-25 11:53 -20.35743 57.53265 3448 ft 188 kts 116°
2026-04-25 11:53 -20.36338 57.54497 3166 ft 188 kts 118°
2026-04-25 11:53 -20.36930 57.55723 2870 ft 183 kts 117°
2026-04-25 11:54 -20.37501 57.56906 2594 ft 176 kts 114°
2026-04-25 11:54 -20.38047 57.58035 2326 ft 167 kts 115°
2026-04-25 11:54 -20.39057 57.60129 1850 ft 149 kts 117°
2026-04-25 11:55 -20.39503 57.61053 1644 ft 135 kts 117°
2026-04-25 11:55 -20.39920 57.61918 1428 ft 128 kts 117°
2026-04-25 11:55 -20.40328 57.62765 1246 ft 126 kts 116°
2026-04-25 11:55 -20.40727 57.63592 1062 ft 126 kts 120°
2026-04-25 11:56 -20.41128 57.64426 870 ft 128 kts 117°
2026-04-25 11:56 -20.41532 57.65259 688 ft 125 kts 119°
2026-04-25 11:56 -20.41926 57.66077 481 ft 128 kts 120°
2026-04-25 11:56 -20.42338 57.66933 308 ft 126 kts 119°
2026-04-25 11:57 -20.42732 57.67752 199 ft 118 kts 121°
2026-04-25 11:57 -20.43047 57.68396 180 ft 75 kts 117°
2026-04-25 11:57 -20.43227 57.68779 170 ft 51 kts 117°
2026-04-25 11:57 -20.43387 57.69107 151 ft 47 kts 117°
2026-04-25 11:58 -20.43522 57.69359 135 ft 29 kts 149°
2026-04-25 11:58 -20.43659 57.69283 150 ft 18 kts 264°
2026-04-25 11:58 -20.43615 57.69181 158 ft 13 kts 297°
2026-04-25 11:58 -20.43581 57.69109 164 ft 9 kts 297°
2026-04-25 11:59 -20.43549 57.69044 168 ft 12 kts 298°
2026-04-25 11:59 -20.43508 57.68960 172 ft 12 kts 296°
2026-04-25 11:59 -20.43471 57.68881 172 ft 12 kts 297°
2026-04-25 12:00 -20.43388 57.68706 176 ft 13 kts 296°
2026-04-25 12:00 -20.43348 57.68622 177 ft 12 kts 297°
2026-04-25 12:00 -20.43270 57.68465 179 ft 12 kts 298°
2026-04-25 12:01 -20.43228 57.68376 181 ft 13 kts 296°
2026-04-25 12:01 -20.43189 57.68295 184 ft 11 kts 297°
2026-04-25 12:01 -20.43155 57.68226 195 ft 10 kts 297°
2026-04-25 12:01 -20.43121 57.68155 186 ft 11 kts 297°
2026-04-25 12:02 -20.43039 57.67979 193 ft 18 kts 297°
2026-04-25 12:02 -20.42996 57.67859 186 ft 17 kts 255°
2026-04-25 12:02 -20.43021 57.67765 197 ft 13 kts 287°
2026-04-25 12:03 -20.43078 57.67715 190 ft 12 kts 207°
2026-04-25 12:03 -20.43102 57.67702 190 ft 1 kts 207°
2026-04-25 12:03 -20.43105 57.67700 190 ft 0 kts 207°